Weather History for Frankfort, KY

Change the Weather History Date:

Thursday, October 31, 2013

  Actual Average Record
Temperature  
Mean Temperature 63 °F 52 °F  
Max Temperature 68 °F 63 °F 83 °F (1971)
Min Temperature 57 °F 40 °F 23 °F (1952)
Degree Days  
Heating Degree Days 2 13  
Month to date heating degree days 309 287  
Since 1 July heating degree days 339 341  
Cooling Degree Days 0 0  
Month to date cooling degree days 40 19  
Year to date cooling degree days 1127 1154  
Growing Degree Days 15 (Base 50)    
Moisture  
Dew Point 60 °F    
Average Humidity 87    
Maximum Humidity 100    
Minimum Humidity 73    
Precipitation  
Precipitation 1.40 in 0.11 in 1.60 in (1897)
Month to date precipitation 5.77 3.24  
Year to date precipitation 42.55 37.88  
Sea Level Pressure  
Sea Level Pressure 29.65 in    
Wind  
Wind Speed 14 mph (SSW)    
Max Wind Speed 33 mph    
Max Gust Speed 45 mph    
Visibility 8 miles    
Events Rain    
T = Trace of Precipitation, MM = Missing Value Source: NWS Daily Summary

Daily Weather History Graph

Daily Weather History Graph

Search for Another Location

Airport:

Trip Planner

Search our weather history database for the weather conditions in past years. The results will help you decide how hot, cold, wet, or windy it might be!

Date:

Astronomy

Oct. 31, 2013 Rise Set
Actual Time 8:04 AM EDT 6:41 PM EDT
Civil Twilight 7:37 AM EDT 7:08 PM EDT
Nautical Twilight 7:06 AM EDT 7:39 PM EDT
Astronomical Twilight 6:35 AM EDT 8:10 PM EDT
Moon 4:56 AM EDT (10/31) 4:56 PM EDT (10/31)
Length of Visible Light 11h 30m
Length of Day
10h 36m
Waning Crescent, 10% of the Moon is Illuminated
Oct 31
Waning Crescent
Nov 3
New
Nov 10
First Quarter
Nov 17
Full
Nov 25
Last Quarter

Hourly Weather History & Observations

Time (EDT) Temp. Dew Point Humidity Pressure Visibility Wind Dir Wind Speed Gust Speed Precip Events Conditions
12:53 AM 63.0 °F 57.0 °F 81% 30.03 in 10.0 mi South 5.8 mph - N/A   Partly Cloudy
1:53 AM 64.0 °F 55.9 °F 75% 30.01 in 10.0 mi South 9.2 mph - N/A   Clear
2:53 AM 63.0 °F 55.0 °F 75% 29.99 in 10.0 mi South 8.1 mph - N/A   Partly Cloudy
3:53 AM 63.0 °F 55.0 °F 75% 29.96 in 10.0 mi South 9.2 mph - N/A   Clear
4:53 AM 63.0 °F 55.0 °F 75% 29.96 in 10.0 mi South 6.9 mph - N/A   Clear
5:53 AM 64.0 °F 55.0 °F 73% 29.94 in 10.0 mi South 10.4 mph - N/A   Clear
6:53 AM 64.0 °F 55.0 °F 73% 29.94 in 10.0 mi South 8.1 mph - N/A   Overcast
7:53 AM 64.0 °F 55.0 °F 73% 29.91 in 10.0 mi South 9.2 mph - N/A   Mostly Cloudy
8:53 AM 64.0 °F 55.0 °F 73% 29.88 in 10.0 mi South 10.4 mph - N/A   Mostly Cloudy
9:53 AM 64.0 °F 55.0 °F 73% 29.88 in 10.0 mi South 11.5 mph - N/A   Overcast
10:53 AM 62.1 °F 57.0 °F 84% 29.86 in 5.0 mi South 9.2 mph - 0.02 in Rain Light Rain
11:53 AM 63.0 °F 57.0 °F 81% 29.83 in 10.0 mi South 10.4 mph - 0.01 in   Overcast
12:53 PM 64.0 °F 55.0 °F 73% 29.78 in 10.0 mi South 15.0 mph 24.2 mph 0.00 in   Overcast
1:53 PM 64.9 °F 55.0 °F 70% 29.72 in 10.0 mi South 21.9 mph 32.2 mph N/A   Overcast
2:44 PM 64.4 °F 57.2 °F 77% 29.71 in 10.0 mi South 13.8 mph 29.9 mph 0.00 in Rain Light Rain
2:53 PM 64.0 °F 57.9 °F 80% 29.69 in 10.0 mi South 17.3 mph 27.6 mph 0.01 in Rain Light Rain
3:53 PM 64.0 °F 60.1 °F 87% 29.65 in 10.0 mi South 13.8 mph 28.8 mph 0.00 in Rain Light Rain
4:53 PM 64.9 °F 61.0 °F 87% 29.61 in 10.0 mi South 16.1 mph 27.6 mph 0.01 in Rain Light Rain
5:00 PM 64.4 °F 60.8 °F 88% 29.62 in 10.0 mi South 19.6 mph 26.5 mph 0.00 in Rain Light Rain
5:42 PM 64.4 °F 62.6 °F 94% 29.59 in 6.0 mi South 18.4 mph 25.3 mph 0.03 in Rain Light Rain
5:53 PM 64.9 °F 62.1 °F 90% 29.56 in 8.0 mi South 20.7 mph 27.6 mph 0.03 in Rain Light Rain
6:13 PM 66.2 °F 62.6 °F 88% 29.55 in 10.0 mi South 19.6 mph 32.2 mph 0.01 in   Overcast
6:35 PM 66.2 °F 60.8 °F 83% 29.55 in 9.0 mi South 21.9 mph 32.2 mph 0.01 in   Overcast
6:43 PM 66.2 °F 60.8 °F 83% 29.54 in 10.0 mi South 18.4 mph 29.9 mph 0.01 in   Overcast
6:53 PM 66.0 °F 61.0 °F 84% 29.52 in 10.0 mi South 18.4 mph 29.9 mph 0.01 in   Overcast
7:00 PM 66.2 °F 60.8 °F 83% 29.54 in 10.0 mi South 18.4 mph 32.2 mph N/A   Overcast
7:32 PM 66.2 °F 60.8 °F 83% 29.52 in 10.0 mi South 21.9 mph 39.1 mph N/A   Overcast
7:53 PM 68.0 °F 61.0 °F 78% 29.50 in 10.0 mi South 18.4 mph 36.8 mph N/A   Overcast
8:09 PM 66.2 °F 62.6 °F 88% 29.51 in 7.0 mi South 23.0 mph 42.6 mph 0.00 in   Overcast
8:53 PM 68.0 °F 61.0 °F 78% 29.47 in 10.0 mi South 26.5 mph 40.3 mph 0.01 in   Overcast
9:06 PM 68.0 °F 60.8 °F 78% 29.48 in 10.0 mi South 31.1 mph 40.3 mph N/A   Overcast
9:31 PM 66.2 °F 62.6 °F 88% 29.47 in 8.0 mi South 21.9 mph 44.9 mph 0.01 in Rain Light Rain
9:53 PM 68.0 °F 62.1 °F 81% 29.44 in 9.0 mi South 25.3 mph 42.6 mph 0.02 in Rain Light Rain
10:10 PM 66.2 °F 62.6 °F 88% 29.45 in 9.0 mi South 28.8 mph 40.3 mph 0.01 in Rain Light Rain
10:26 PM 64.4 °F 62.6 °F 94% 29.47 in 2.5 mi WSW 16.1 mph 27.6 mph 0.13 in Rain Heavy Rain
10:32 PM 64.4 °F 62.6 °F 94% 29.47 in 1.0 mi WSW 19.6 mph 27.6 mph 0.27 in Rain Heavy Rain
10:43 PM 64.4 °F 64.4 °F 100% 29.47 in 2.0 mi SW 19.6 mph 31.1 mph 0.38 in Rain Heavy Rain
10:53 PM 64.9 °F 64.0 °F 97% 29.47 in 5.0 mi SW 16.1 mph 23.0 mph 0.40 in Rain Light Rain
11:03 PM 64.4 °F 64.4 °F 100% 29.48 in 1.8 mi SW 18.4 mph 28.8 mph 0.16 in Rain Heavy Rain
11:12 PM 64.4 °F 64.4 °F 100% 29.48 in 1.0 mi SSW 26.5 mph 42.6 mph 0.38 in Rain Heavy Rain
11:17 PM 64.4 °F 62.6 °F 94% 29.48 in 1.8 mi SW 28.8 mph 40.3 mph 0.39 in Rain Rain
11:19 PM 64.4 °F 62.6 °F 94% 29.47 in 3.0 mi SSW 25.3 mph 40.3 mph 0.40 in Rain Rain
11:53 PM 64.9 °F 63.0 °F 93% 29.47 in 2.0 mi SW 19.6 mph 32.2 mph 0.58 in Rain Heavy Rain
11:58 PM 64.4 °F 62.6 °F 94% 29.50 in 1.8 mi WSW 11.5 mph 28.8 mph 0.08 in Rain Heavy Rain